Wind_Speed
8 6 4 4 5 5 10 9 12 13 12 9 8 12 10 17 12 6 24 19 23 22 22 20 16 15 15 15 15 14 14 13 13 11 10 11 12 11 10 9 9 9 9 10 11 11 12 12 13
2 5 7 7 3 10 11 12 15 12 10 10 9 7 14 16 11 22 25 23 23 23 20 17 17 15 17 16 16 14 14 13 12 11 9 10 10 9 8 9 9 9 10 8 9 11 9 11 10
3 8 11 5 10 12 11 13 10 9 6 5 8 12 8 12 15 20 23 26 23 21 20 18 17 15 17 17 16 15 14 12 12 10 10 8 8 9 9 9 8 8 8 9 7 10 9 9 9
7 8 7 9 15 15 15 12 7 11 12 7 5 12 11 8 16 16 25 25 22 21 18 20 18 17 17 17 16 16 13 11 11 8 9 7 6 7 7 7 7 4 4 4 6 10 9 9 9
8 12 7 13 15 14 13 11 10 15 11 13 4 14 14 11 14 24 25 22 21 21 17 19 17 16 16 15 16 15 12 11 9 7 5 5 5 5 5 4 4 3 4 3 4 5 8 8 8
13 5 6 11 12 15 12 8 13 16 10 13 14 16 11 14 22 24 23 21 20 18 17 16 17 15 14 14 14 15 12 10 8 5 4 3 4 4 3 2 3 2 2 2 3 4 7 6 5
7 1 9 12 14 11 12 12 10 15 16 15 5 14 13 17 22 23 21 19 18 17 17 16 15 15 13 13 13 13 12 9 7 7 6 4 4 2 2 2 2 3 4 4 3 3 6 7 6
8 5 9 8 13 11 6 13 6 16 12 8 9 8 15 20 22 21 20 19 17 17 15 15 14 14 12 11 12 11 10 9 8 7 6 6 4 4 3 4 3 4 5 6 5 7 8 9 9
7 4 7 12 13 13 1 10 8 4 12 14 9 11 20 23 22 22 20 19 18 17 14 13 12 12 12 10 9 9 10 9 8 6 5 4 5 4 8 13 15 10 10 9 8 10 11 11 11
11 10 7 4 7 8 7 4 2 6 9 15 13 14 18 22 22 22 21 20 19 18 15 14 12 11 11 8 9 6 5 5 5 6 10 6 12 14 15 14 12 13 16 15 14 13 14 16 11
4 7 3 6 9 7 6 3 4 13 12 16 15 16 18 19 19 19 18 17 18 17 16 15 14 13 11 11 7 6 7 8 9 10 11 12 14 15 17 12 9 13 12 9 15 15 11 12 14
6 2 2 2 4 3 5 5 2 10 11 16 14 17 17 17 16 18 17 17 17 16 16 15 14 14 13 9 9 7 8 8 8 11 10 12 16 15 13 14 12 14 7 10 9 10 8 15 15
6 3 4 2 0 5 2 2 6 5 7 12 16 16 16 15 15 16 15 15 15 16 16 14 14 14 14 14 9 9 9 9 8 10 9 14 13 12 14 14 15 11 13 16 17 14 15 16 16
6 10 4 2 6 0 6 2 2 10 9 13 15 15 14 14 15 16 16 14 15 14 14 13 12 13 12 12 13 11 11 10 10 10 14 11 12 12 12 15 13 12 12 13 13 13 10 16 18
9 13 9 5 3 4 8 4 6 10 11 13 13 13 13 13 14 13 14 14 12 12 13 12 9 10 12 12 12 11 11 10 10 10 14 12 15 14 12 11 13 13 13 14 14 15 17 17 14
10 13 12 12 5 5 9 12 12 9 12 13 14 13 13 13 14 13 13 15 16 16 19 13 8 10 12 11 11 10 10 10 10 12 11 12 12 15 13 12 13 14 15 15 14 16 17 17 17
10 7 8 4 6 7 6 7 9 9 12 12 15 13 13 14 13 13 12 13 14 13 17 15 13 13 10 11 11 12 11 11 10 10 11 13 14 15 16 15 13 17 15 17 17 15 16 16 15
11 8 10 4 7 8 11 2 10 5 8 11 12 15 10 12 14 14 14 13 12 14 13 12 18 17 18 11 9 10 10 10 10 10 11 14 15 13 15 14 15 17 19 20 18 20 18 18 15
8 9 4 6 3 9 2 9 6 7 7 9 12 15 19 13 11 12 13 13 12 13 16 17 17 15 16 13 10 9 10 8 7 7 17 23 23 15 12 12 16 16 21 20 20 20 19 18 15
10 13 11 8 4 7 4 10 6 8 7 10 10 14 12 14 11 12 11 13 13 13 14 16 16 16 16 10 11 11 10 9 9 6 6 10 9 9 8 14 18 20 22 24 24 22 22 21 17
15 16 3 6 5 11 11 7 5 11 7 9 10 11 12 13 15 14 14 14 14 14 14 15 16 17 15 12 10 11 10 14 9 6 6 9 8 7 13 15 17 21 21 28 28 26 24 21 20
20 9 1 7 11 2 21 4 20 13 12 8 12 12 13 13 12 12 19 14 16 16 14 12 15 16 16 13 11 13 11 10 8 7 9 11 12 10 10 12 17 19 21 22 27 30 28 24 21
15 4 8 7 14 13 12 9 13 9 7 15 12 16 13 14 16 13 8 15 15 16 16 13 9 12 14 13 12 10 10 10 8 7 7 8 9 12 9 15 18 18 17 22 22 25 29 27 27
12 4 12 14 14 12 16 9 12 4 8 6 12 15 14 11 10 8 7 10 12 15 16 14 10 9 9 9 10 10 8 7 6 6 6 7 9 9 11 16 20 20 21 22 21 19 24 29 28
14 14 13 13 12 11 17 5 3 10 7 1 11 14 14 11 11 11 11 11 13 15 16 15 15 11 9 8 8 8 6 5 3 5 7 10 10 12 14 21 18 18 24 18 19 16 18 23 27
17 20 15 11 9 5 18 2 6 8 6 4 8 16 15 12 12 11 13 13 14 15 16 15 14 13 8 8 7 6 5 1 2 6 7 7 9 10 14 15 15 17 17 20 18 16 12 15 20
20 18 23 20 23 16 6 9 8 12 8 7 12 17 17 13 11 11 12 12 14 16 17 16 14 12 11 9 10 6 4 2 5 5 5 6 8 9 12 13 15 16 16 19 17 15 6 10 12
19 13 12 9 10 6 8 4 4 10 9 8 12 18 19 15 12 13 13 13 13 14 15 15 14 12 11 10 8 6 4 1 1 3 4 6 6 9 11 13 14 16 18 19 17 12 9 10 13
12 13 11 10 6 9 8 9 2 3 4 12 14 18 21 17 15 14 13 13 13 13 14 14 13 12 12 10 9 7 3 1 1 1 3 6 7 9 11 15 16 16 15 17 23 15 10 9 11
23 19 19 9 12 10 10 5 11 5 4 10 15 18 21 18 17 15 14 14 14 14 14 13 13 13 13 11 7 5 5 5 1 1 3 7 9 11 13 16 16 16 17 13 16 19 13 12 11
Wind_Direction
30 22 301 258 259 80 67 53 58 42 73 66 86 38 64 41 39 78 139 145 146 151 155 154 155 157 155 154 150 144 137 127 122 113 98 103 105 102 108 109 108 103 109 112 114 113 112 110 108
307 293 271 258 25 64 64 64 54 51 65 83 93 140 90 63 72 125 136 146 148 149 149 154 153 157 157 157 154 147 137 130 119 112 108 93 104 116 115 116 122 126 114 113 117 123 122 123 116
13 281 283 35 50 61 63 66 74 82 49 74 94 35 31 93 109 130 142 144 146 148 146 160 148 150 151 156 155 148 143 129 127 126 114 105 100 111 105 111 109 106 120 136 128 133 119 116 114
306 242 252 74 66 57 73 69 63 104 101 57 75 87 90 86 129 140 144 143 146 144 155 152 150 148 148 155 155 153 144 134 125 124 130 121 107 106 127 122 116 122 105 113 138 136 144 126 125
287 271 99 89 74 72 70 67 36 68 55 51 39 82 86 105 130 141 144 145 144 145 155 150 153 149 152 155 157 157 150 148 139 135 126 123 126 120 109 132 140 131 126 133 143 150 153 146 140
266 284 89 79 88 79 72 64 75 77 86 88 93 95 87 124 137 144 145 146 146 149 147 149 151 152 155 160 166 165 161 160 151 135 119 121 118 124 136 159 183 191 212 165 150 166 168 168 175
310 334 76 98 90 72 68 44 47 76 66 75 82 75 120 133 144 147 148 148 152 151 154 151 154 162 160 166 169 172 175 172 167 166 158 158 168 173 172 166 209 244 239 245 248 214 191 207 213
296 287 78 57 77 68 79 62 64 50 68 86 0 119 150 147 151 151 152 153 154 156 161 158 163 163 160 166 173 180 185 189 190 195 191 207 206 231 244 263 268 256 266 265 269 254 228 231 230
248 277 67 30 62 93 191 88 66 111 105 55 56 61 131 151 154 156 157 159 160 163 165 165 166 166 161 171 180 187 193 201 208 216 217 229 241 266 283 282 267 262 258 262 256 260 248 239 242
284 60 43 39 5 78 98 36 200 192 132 109 83 100 136 152 160 163 166 168 170 171 172 172 170 175 167 170 209 199 215 227 222 225 257 212 245 267 277 291 286 260 264 263 267 278 270 244 236
355 66 11 70 39 5 60 142 319 119 59 66 109 131 145 154 165 170 173 175 178 179 178 181 181 183 185 180 197 202 217 221 222 241 236 240 259 270 276 270 292 257 256 268 270 261 253 237 233
260 168 55 32 20 358 334 11 18 18 44 77 116 142 149 159 169 173 176 176 180 185 188 188 195 193 196 204 209 206 215 218 262 242 225 249 265 267 282 277 278 266 264 265 268 268 264 241 241
250 358 288 9 7 284 34 334 22 71 99 106 126 145 153 160 164 169 172 173 180 186 192 196 197 205 205 209 209 213 222 225 235 266 254 262 280 255 260 279 273 263 242 246 248 259 246 239 240
2 276 292 279 65 228 290 109 255 124 138 131 135 152 157 159 166 161 167 172 177 180 189 190 199 210 207 209 210 213 222 225 238 243 269 267 263 250 258 272 271 260 257 256 250 251 247 239 235
278 267 185 126 52 28 293 232 154 122 152 148 145 158 161 169 163 169 178 168 180 194 190 188 195 211 214 210 218 222 222 236 236 243 256 262 272 269 258 278 282 270 264 262 255 257 259 253 241
243 241 241 123 313 111 279 92 102 147 165 168 153 159 163 170 177 182 177 182 193 190 190 188 200 210 225 222 217 218 232 234 242 244 253 269 269 279 276 276 273 267 276 264 252 256 254 251 254
199 229 269 128 127 306 235 105 107 165 173 184 161 164 171 175 185 185 191 189 200 193 208 200 196 203 214 227 221 220 227 235 237 248 260 260 262 269 275 280 275 276 267 268 257 248 256 247 261
313 206 178 225 69 297 269 236 114 169 201 181 188 155 171 183 190 194 199 203 200 200 213 219 198 207 225 218 217 222 228 238 242 250 265 266 261 255 264 273 282 268 269 267 263 254 250 251 251
297 301 315 138 62 288 314 297 85 159 196 186 202 173 175 191 175 189 202 203 201 201 197 197 212 208 218 215 219 223 224 228 233 256 254 255 247 255 252 266 277 267 269 263 262 256 254 249 250
225 251 254 123 160 269 239 267 146 163 202 199 201 181 183 156 190 186 191 195 195 196 198 197 201 202 212 219 215 215 223 217 232 259 344 14 252 242 268 285 290 287 271 260 259 256 251 254 236
238 249 138 341 340 239 262 258 250 157 178 198 208 206 190 186 185 186 194 196 190 188 190 194 193 201 197 197 203 209 202 210 218 271 285 327 333 299 285 300 314 302 283 270 261 252 248 243 241
244 246 173 261 260 288 286 194 244 151 169 175 201 202 205 187 197 216 175 190 194 186 181 183 193 201 206 209 206 205 212 215 235 263 272 297 319 322 317 316 326 329 317 293 267 252 248 240 236
258 205 272 269 258 252 183 272 164 187 175 161 211 186 207 181 192 188 213 163 189 190 190 183 189 200 204 214 192 223 208 222 245 266 271 299 326 329 316 318 319 319 312 302 292 259 244 241 234
249 236 239 241 252 263 121 250 51 189 65 137 176 183 189 190 161 160 168 175 180 189 185 179 178 182 192 206 223 215 221 219 240 258 304 316 311 314 314 307 322 322 323 319 307 277 245 237 236
223 228 236 226 218 240 160 196 150 171 64 130 176 180 173 164 158 160 170 170 178 183 181 181 177 172 181 197 202 209 225 238 264 305 317 316 318 316 307 308 330 329 331 326 324 291 251 239 237
211 235 246 212 267 46 327 252 109 56 94 158 199 170 168 174 148 167 162 168 171 180 182 183 184 188 188 182 201 207 210 313 311 320 301 323 317 319 321 329 335 331 339 346 330 332 263 239 239
210 224 256 285 195 245 214 140 170 132 127 176 189 166 167 170 164 158 165 168 170 178 182 184 181 175 176 178 192 189 179 218 281 304 343 313 329 338 333 347 339 335 335 342 344 333 298 252 243
243 280 234 246 274 265 268 225 110 152 160 178 179 177 171 163 169 167 163 164 168 175 175 177 174 168 166 182 174 169 179 226 322 337 345 344 355 358 358 359 355 352 347 338 336 331 312 265 263
212 240 264 276 259 291 246 41 39 116 168 172 187 190 172 166 176 165 161 158 158 161 167 169 167 171 174 166 170 183 168 197 95 349 22 11 355 357 356 356 354 352 355 348 345 327 325 317 286
205 215 243 228 222 254 288 81 215 76 129 167 185 190 173 176 174 167 164 162 158 160 164 169 173 172 164 171 165 166 150 151 124 123 350 359 359 358 353 347 347 345 342 351 348 340 319 304 301
Height
1496 1495 1500 1500 1497 1477 1492 1491 1479 1486 1485 1490 1495 1492 1496 1502 1504 1516 1522 1527 1532 1535 1537 1539 1542 1544 1546 1548 1550 1551 1553 1554 1555 1556 1557 1558 1559 1560 1561 1562 1563 1564 1564 1565 1565 1566 1566 1568 1567
1503 1501 1500 1492 1486 1495 1496 1486 1493 1493 1493 1494 1496 1495 1499 1507 1511 1516 1523 1529 1534 1537 1539 1541 1542 1545 1547 1550 1552 1554 1555 1557 1558 1558 1559 1560 1561 1562 1563 1564 1565 1566 1566 1566 1567 1568 1569 1570 1570
1500 1501 1494 1482 1487 1501 1502 1489 1492 1495 1495 1493 1498 1498 1500 1511 1518 1521 1525 1530 1535 1539 1543 1541 1543 1546 1548 1551 1554 1556 1558 1559 1560 1561 1562 1562 1564 1564 1565 1565 1566 1567 1568 1569 1569 1570 1570 1571 1571
1505 1500 1495 1489 1498 1491 1491 1494 1491 1490 1496 1498 1498 1504 1514 1518 1520 1523 1529 1533 1537 1541 1544 1542 1545 1548 1550 1553 1555 1558 1560 1561 1562 1564 1565 1565 1566 1566 1567 1568 1568 1569 1569 1569 1570 1571 1571 1572 1573
1504 1495 1486 1494 1497 1491 1492 1494 1490 1492 1497 1498 1498 1506 1516 1521 1523 1527 1531 1536 1539 1543 1544 1544 1547 1549 1551 1554 1556 1559 1561 1562 1563 1565 1566 1567 1567 1569 1569 1569 1570 1570 1570 1571 1571 1572 1572 1573 1574
1497 1488 1490 1500 1497 1493 1494 1494 1490 1496 1498 1503 1505 1510 1520 1524 1526 1530 1534 1537 1541 1544 1547 1547 1548 1551 1553 1555 1558 1560 1562 1563 1565 1566 1567 1568 1569 1569 1570 1570 1571 1571 1572 1572 1572 1573 1573 1574 1575
1493 1482 1489 1489 1497 1498 1497 1495 1493 1494 1498 1504 1506 1511 1522 1526 1529 1532 1536 1539 1543 1546 1549 1550 1551 1552 1554 1557 1558 1560 1562 1564 1565 1567 1568 1569 1569 1570 1570 1571 1571 1572 1572 1573 1573 1573 1574 1575 1575
1495 1484 1491 1490 1499 1505 1498 1498 1498 1497 1504 1505 1506 1509 1518 1525 1530 1533 1537 1540 1544 1548 1550 1552 1553 1554 1556 1557 1559 1561 1563 1564 1565 1567 1568 1568 1569 1570 1571 1571 1572 1572 1573 1572 1572 1573 1573 1574 1574
1497 1491 1496 1496 1495 1500 1499 1496 1498 1498 1499 1504 1508 1508 1515 1524 1529 1533 1537 1541 1546 1549 1551 1554 1556 1557 1560 1561 1560 1561 1563 1564 1565 1567 1568 1568 1569 1570 1570 1570 1570 1571 1571 1571 1572 1573 1572 1572 1572
1491 1492 1499 1496 1493 1494 1499 1493 1494 1494 1499 1499 1509 1514 1520 1525 1529 1533 1537 1540 1544 1548 1551 1553 1556 1558 1561 1562 1561 1563 1565 1565 1566 1568 1568 1568 1567 1568 1567 1568 1567 1568 1569 1570 1570 1570 1569 1569 1573
1497 1498 1495 1496 1500 1495 1495 1492 1492 1496 1493 1496 1508 1517 1522 1527 1530 1533 1537 1540 1544 1547 1550 1552 1555 1557 1560 1562 1563 1564 1566 1565 1565 1566 1568 1566 1564 1566 1565 1566 1565 1566 1567 1568 1568 1566 1567 1569 1570
1497 1496 1497 1497 1499 1498 1496 1493 1490 1492 1499 1499 1510 1518 1522 1527 1530 1533 1536 1539 1543 1546 1549 1552 1555 1557 1559 1561 1562 1564 1564 1565 1564 1564 1564 1562 1563 1563 1563 1562 1563 1563 1564 1565 1563 1565 1565 1566 1567
1496 1493 1494 1494 1495 1496 1498 1497 1495 1496 1502 1507 1513 1518 1522 1525 1529 1532 1535 1539 1543 1545 1548 1551 1554 1555 1557 1558 1561 1562 1563 1563 1564 1561 1561 1561 1561 1562 1560 1561 1561 1562 1562 1561 1562 1562 1562 1563 1564
1498 1496 1493 1494 1492 1494 1495 1494 1497 1498 1505 1511 1514 1518 1522 1524 1526 1530 1533 1539 1542 1545 1547 1550 1553 1554 1554 1555 1556 1559 1560 1561 1561 1562 1559 1561 1562 1561 1560 1560 1558 1558 1558 1559 1558 1558 1559 1560 1560
1498 1495 1488 1490 1492 1491 1494 1494 1494 1500 1506 1511 1515 1517 1520 1523 1525 1530 1532 1536 1541 1544 1547 1549 1552 1554 1553 1552 1554 1555 1558 1558 1558 1559 1558 1559 1557 1558 1556 1558 1556 1557 1556 1555 1554 1554 1555 1556 1556
1495 1491 1494 1487 1492 1493 1493 1500 1493 1500 1504 1508 1513 1518 1520 1523 1524 1528 1530 1534 1538 1539 1539 1545 1548 1550 1552 1553 1552 1553 1555 1555 1556 1556 1557 1556 1556 1554 1553 1553 1554 1553 1553 1553 1551 1551 1551 1552 1552
1488 1502 1492 1489 1489 1491 1489 1493 1494 1498 1500 1504 1509 1517 1519 1522 1524 1527 1529 1532 1536 1539 1536 1540 1541 1545 1549 1552 1551 1551 1552 1553 1553 1554 1554 1554 1553 1552 1551 1549 1550 1549 1549 1549 1548 1548 1548 1549 1549
1513 1489 1490 1494 1488 1489 1485 1484 1489 1497 1497 1501 1503 1512 1519 1520 1523 1525 1528 1530 1533 1537 1537 1537 1539 1542 1546 1549 1547 1549 1550 1550 1551 1551 1551 1550 1549 1548 1547 1546 1545 1546 1545 1544 1544 1542 1544 1544 1545
1489 1488 1490 1485 1490 1492 1487 1486 1483 1493 1498 1498 1499 1505 1508 1516 1519 1522 1526 1528 1531 1533 1536 1537 1538 1540 1543 1544 1545 1547 1547 1547 1547 1549 1546 1544 1542 1543 1543 1544 1541 1541 1541 1541 1539 1539 1540 1538 1541
1490 1492 1487 1482 1487 1490 1484 1486 1482 1488 1493 1496 1497 1499 1503 1510 1516 1520 1523 1525 1528 1530 1532 1534 1537 1539 1539 1541 1543 1545 1544 1545 1545 1544 1541 1539 1538 1539 1539 1538 1538 1535 1535 1535 1534 1534 1534 1534 1536
1489 1487 1490 1490 1485 1483 1484 1492 1483 1482 1490 1492 1495 1497 1498 1504 1509 1514 1519 1522 1525 1527 1529 1530 1533 1534 1536 1539 1539 1541 1541 1541 1542 1542 1540 1538 1538 1538 1537 1535 1533 1530 1528 1527 1527 1528 1528 1530 1532
1488 1476 1481 1488 1491 1508 1490 1514 1499 1475 1482 1491 1493 1495 1496 1501 1506 1507 1510 1518 1522 1525 1527 1528 1530 1532 1533 1534 1537 1537 1539 1540 1542 1541 1541 1538 1536 1534 1533 1531 1529 1525 1523 1520 1519 1521 1522 1524 1526
1481 1483 1483 1484 1485 1477 1481 1486 1489 1473 1477 1481 1489 1490 1493 1496 1499 1506 1508 1511 1518 1522 1525 1526 1528 1530 1532 1533 1536 1537 1537 1539 1539 1540 1539 1538 1536 1534 1534 1531 1528 1524 1521 1516 1512 1511 1514 1517 1519
1475 1483 1484 1480 1477 1494 1485 1485 1496 1502 1477 1476 1483 1485 1491 1494 1499 1504 1508 1513 1518 1521 1524 1526 1527 1530 1533 1535 1536 1537 1538 1538 1539 1539 1538 1538 1537 1536 1534 1530 1524 1521 1516 1511 1507 1505 1506 1509 1513
1481 1488 1498 1502 1493 1489 1462 1479 1474 1472 1471 1475 1479 1484 1490 1494 1499 1505 1509 1514 1518 1521 1524 1526 1526 1529 1532 1534 1536 1537 1538 1538 1538 1537 1538 1535 1535 1533 1530 1525 1521 1517 1513 1508 1504 1501 1501 1504 1508
1480 1478 1486 1510 1504 1499 1492 1485 1474 1466 1471 1477 1479 1484 1491 1495 1499 1503 1509 1514 1517 1520 1524 1527 1527 1528 1531 1535 1537 1537 1538 1539 1539 1538 1536 1535 1534 1532 1527 1524 1520 1517 1512 1507 1503 1499 1498 1501 1503
1470 1482 1457 1468 1472 1477 1463 1458 1454 1463 1471 1475 1478 1483 1490 1495 1500 1505 1510 1513 1516 1519 1522 1525 1527 1528 1531 1534 1535 1535 1537 1538 1538 1536 1534 1534 1532 1530 1527 1523 1519 1516 1512 1508 1504 1501 1498 1499 1501
1463 1457 1476 1466 1496 1503 1477 1471 1470 1469 1471 1474 1476 1482 1489 1496 1501 1504 1509 1513 1517 1520 1523 1525 1527 1529 1532 1534 1536 1536 1536 1536 1536 1537 1535 1533 1531 1528 1525 1522 1520 1516 1512 1509 1506 1503 1500 1500 1501
1469 1470 1460 1457 1471 1489 1490 1501 1458 1464 1462 1468 1475 1482 1486 1495 1501 1505 1510 1514 1517 1521 1524 1526 1528 1531 1533 1535 1536 1536 1536 1537 1536 1536 1535 1533 1531 1528 1526 1522 1519 1516 1512 1510 1506 1503 1501 1500 1498
1454 1459 1458 1472 1481 1464 1464 1495 1466 1461 1463 1464 1471 1481 1484 1494 1500 1505 1510 1514 1518 1521 1524 1527 1529 1531 1533 1535 1536 1537 1536 1536 1537 1536 1536 1534 1532 1529 1527 1523 1519 1516 1513 1510 1507 1504 1501 1499 1498